Location: Newark
(45.8667°N, 9.7333°E)
Time: 00:21:33
(UTC+00:00)

AO-73 - Pass Details

Date: 29 February 2020
Orbit: 582 x 663 km, 97.6° (Epoch: 01 April)

Event Time Altitude Azimuth Distance (km) Brightness Sun altitude
Rises 05:08:52 0° 18° (NNE) 3,005 ? -9.9°
Reaches altitude 10° 05:11:12 10° 24° (NNE) 2,082 ? -9.5°
Maximum altitude 05:15:35 46° 98° (E) 877 ? -8.7°
Drops below altitude 10° 05:19:51 10° 172° (S) 2,029 ? -8.0°
Sets 05:22:05 0° 178° (S) 2,920 ? -7.6°
